Home > Weather > Freiburg > Past weeks

Flag for Germany Past Weather in Freiburg, Baden-Württemberg, Germany — Yesterday and Last 2 Weeks

Now
71 °F

Partly sunny.


Feels Like: 77 °F
Forecast: 52 / 72 °F
Wind: 3 mph from West

Location: Freiburg

Current Time: Jun 26, 2016 at 2:03:45 PM

Latest Report: Jun 26, 2016 at 1:00 PM


Visibility: 41 mi

Pressure: 30.08 "Hg

Humidity: 43%

Dew Point: 47 °F

Location of FreiburgLocation

Past Weather in Freiburg — Graph

°F

Freiburg Temperature Yesterday

Maximum temperature yesterday: 77 °F (at 1:00 PM)
Minimum temperature yesterday: 63 °F (at 10:00 PM)
Average temperature yesterday: 69 °F

High & Low Weather Summary for the Past Weeks

 TemperatureHumidityPressure
High92 °F (Jun 23, 6:00 PM)99% (Jun 20, 6:00 AM)30.29 "Hg (Jun 20, 6:00 AM)
Low44 °F (Jun 20, 6:00 AM)37% (Jun 23, 6:00 PM)29.58 "Hg (Jun 15, 6:00 AM)
Average64 °F76%29.95 "Hg
* Reported Jun 11 1:00 PM — Jun 26 1:00 PM, Freiburg, Weather by CustomWeather, © 2016

Note: Actual official high and low records may vary slightly from our data, if they occured in-between our weather recording intervals... More about our weather records

Advertising

Freiburg Weather History for the Previous 24 Hours

Scroll right to see more
 ConditionsComfort  
Time TempWeatherWind HumidityBarometerVisibility
1:00 PM
Sun, Jun 26
71 °FPartly sunny.3 mph43%30.08 "Hg40 mi
12:00 PM69 °FSunny.1 mph49%30.09 "Hg43 mi
10:00 AM64 °FPassing clouds.2 mph67%30.11 "Hg28 mi
9:00 AM62 °FOvercast.1 mph75%30.11 "Hg22 mi
7:00 AM57 °FSunny.2 mph82%30.11 "Hg22 mi
6:00 AM56 °FSunny.3 mph86%30.11 "Hg25 mi
4:00 AM57 °FClear.5 mph87%30.10 "Hg19 mi
3:00 AM56 °FClear.1 mph96%30.10 "Hg14 mi
1:00 AM57 °FClear.1 mph95%30.12 "Hg8 mi
12:00 AM59 °FPassing clouds.2 mph89%30.12 "Hg17 mi
10:00 PM
Sat, Jun 25
63 °FOvercast.2 mph87%30.07 "Hg16 mi
9:00 PM63 °FOvercast.5 mph85%30.05 "Hg22 mi
7:00 PM69 °FOvercast.2 mph74%29.98 "Hg43 mi
6:00 PM69 °FOvercast.1 mph72%29.99 "Hg43 mi
4:00 PM66 °FOvercast.2 mph80%30.00 "Hg43 mi
3:00 PM72 °FScattered clouds.9 mph66%29.93 "Hg43 mi
Weather by CustomWeather, © 2016

See weather overviewHow to use our weather pages